Creede, CO

4:17 PM MST on December 09, 2016 (GMT -0700)
Wolf Creek Pass

Weather History for KCPW - May, 2012

Change the Weather History Date:

Wednesday, May 9, 2012

  Actual Average (KE33) Record (KE33)
Temperature  
Mean Temperature 35 °F -  
Max Temperature 44 °F 61 °F 69 °F (2001)
Min Temperature 26 °F 37 °F 30 °F (2003)
Degree Days  
Heating Degree Days 30    
Moisture  
Dew Point 23 °F    
Average Humidity 63    
Maximum Humidity 100    
Minimum Humidity 39    
Precipitation  
Precipitation 0.00 in - - ()
Sea Level Pressure  
Sea Level Pressure 30.38 in    
Wind  
Wind Speed 10 mph (SW)    
Max Wind Speed 16 mph    
Max Gust Speed 21 mph    
Visibility 10 miles    
Events Thunderstorm    
Averages and records for this station are not official NWS values.
T = Trace of Precipitation, MM = Missing Value Source: NWS Daily Summary

Daily Weather History Graph

Daily Weather History Graph

Search for Another Location

Airport or City:

Trip Planner

Search our weather history database for the weather conditions in past years. The results will help you decide how hot, cold, wet, or windy it might be!

Date:

Astronomy

May. 09, 2012 Rise Set
Actual Time 6:03 AM MDT 8:04 PM MDT
Civil Twilight 5:34 AM MDT 8:33 PM MDT
Nautical Twilight 4:59 AM MDT 9:08 PM MDT
Astronomical Twilight 4:21 AM MDT 9:46 PM MDT
Moon No Moon Rise 9:22 AM MDT
Length of Visible Light 14h 59m
Length of Day
14h 01m
Waning Gibbous, 82% of the Moon is Illuminated
May 9
Waning Gibbous
May 12
Last Quarter
May 20
New
May 28
First Quarter
Jun 4
Full

Hourly Weather History & Observations

Time (MDT) Temp. Windchill Dew Point Humidity Pressure Visibility Wind Dir Wind Speed Gust Speed Precip Events Conditions
12:15 AM 30.2 °F 21.3 °F 24.8 °F 80% 30.41 in 10.0 mi SW 10.4 mph - N/A   Clear
12:35 AM 30.2 °F 20.2 °F 24.8 °F 80% 30.40 in 10.0 mi SW 12.7 mph - N/A   Clear
12:55 AM 30.2 °F 21.3 °F 23.0 °F 75% 30.40 in 10.0 mi SW 10.4 mph - N/A   Clear
1:15 AM 28.4 °F 18.0 °F 26.6 °F 93% 30.40 in 10.0 mi SW 12.7 mph 18.4 mph N/A   Scattered Clouds
1:35 AM 28.4 °F 16.6 °F 26.6 °F 93% 30.40 in 10.0 mi SW 16.1 mph 19.6 mph N/A   Scattered Clouds
1:55 AM 28.4 °F 18.0 °F 24.8 °F 86% 30.40 in 10.0 mi SW 12.7 mph - N/A   Clear
2:15 AM 28.4 °F 16.6 °F 26.6 °F 93% 30.40 in 10.0 mi SW 16.1 mph - N/A   Clear
2:35 AM 28.4 °F 17.0 °F 26.6 °F 93% 30.40 in 10.0 mi SW 15.0 mph 19.6 mph N/A   Scattered Clouds
2:55 AM 26.6 °F 16.2 °F 26.6 °F 100% 30.40 in 10.0 mi WSW 11.5 mph - N/A   Mostly Cloudy
3:15 AM 26.6 °F 14.7 °F 26.6 °F 100% 30.40 in 10.0 mi SW 15.0 mph - N/A   Overcast
3:35 AM 26.6 °F 15.2 °F 26.6 °F 100% 30.40 in 10.0 mi SW 13.8 mph - N/A   Scattered Clouds
3:55 AM 26.6 °F 15.7 °F 26.6 °F 100% 30.40 in 10.0 mi SW 12.7 mph - N/A   Scattered Clouds
4:15 AM 26.6 °F 15.2 °F 26.6 °F 100% 30.39 in 10.0 mi SW 13.8 mph - N/A   Clear
4:35 AM 26.6 °F 16.2 °F 26.6 °F 100% 30.40 in 10.0 mi SW 11.5 mph - N/A   Clear
5:15 AM 28.4 °F 20.4 °F 24.8 °F 86% 30.40 in 10.0 mi SW 8.1 mph - N/A   Clear
5:35 AM 28.4 °F 21.2 °F 23.0 °F 80% 30.39 in 10.0 mi WSW 6.9 mph - N/A   Clear
5:55 AM 28.4 °F 22.2 °F 21.2 °F 74% 30.39 in 10.0 mi West 5.8 mph - N/A   Clear
6:15 AM 28.4 °F 23.3 °F 23.0 °F 80% 30.40 in 10.0 mi North 4.6 mph - N/A   Clear
6:35 AM 30.2 °F 23.4 °F 21.2 °F 69% 30.40 in 10.0 mi NNE 6.9 mph - N/A   Clear
6:55 AM 30.2 °F 22.6 °F 23.0 °F 75% 30.40 in 10.0 mi NE 8.1 mph - N/A   Clear
7:15 AM 30.2 °F 22.6 °F 23.0 °F 75% 30.40 in 10.0 mi NE 8.1 mph - N/A   Clear
7:35 AM 32.0 °F 24.8 °F 23.0 °F 69% 30.40 in 10.0 mi NE 8.1 mph - N/A   Clear
7:55 AM 32.0 °F 24.2 °F 24.8 °F 75% 30.40 in 10.0 mi NE 9.2 mph - N/A   Clear
8:15 AM 32.0 °F 23.0 °F 23.0 °F 69% 30.41 in 10.0 mi NE 11.5 mph 17.3 mph N/A   Clear
8:35 AM 33.8 °F 25.3 °F 23.0 °F 65% 30.42 in 10.0 mi NE 11.5 mph - N/A   Clear
8:55 AM 33.8 °F - 24.8 °F 70% 30.42 in 10.0 mi North - - N/A   Clear
9:15 AM 35.6 °F - 24.8 °F 65% 30.42 in 10.0 mi North - - N/A   Clear
9:35 AM 33.8 °F - 23.0 °F 65% 30.42 in 10.0 mi North - - N/A   Clear
9:55 AM 35.6 °F 30.7 °F 23.0 °F 60% 30.42 in 10.0 mi North 5.8 mph - N/A   Clear
10:15 AM 37.4 °F 33.8 °F 21.2 °F 52% 30.42 in 10.0 mi East 4.6 mph - N/A   Scattered Clouds
10:35 AM 37.4 °F - 17.6 °F 45% 30.42 in 10.0 mi Calm Calm - N/A   Clear
10:55 AM 39.2 °F - 19.4 °F 45% 30.42 in 10.0 mi Calm Calm - N/A   Mostly Cloudy
11:15 AM 39.2 °F - 17.6 °F 42% 30.42 in 10.0 mi North - - N/A   Scattered Clouds
11:35 AM 39.2 °F 37.0 °F 15.8 °F 39% 30.42 in 10.0 mi WNW 3.5 mph - N/A   Clear
11:55 AM 37.4 °F 32.8 °F 15.8 °F 41% 30.42 in 10.0 mi NNE 5.8 mph - N/A   Mostly Cloudy
12:15 PM 37.4 °F 32.8 °F 19.4 °F 48% 30.42 in 10.0 mi SSW 5.8 mph - N/A   Overcast
12:35 PM 37.4 °F 30.8 °F 23.0 °F 56% 30.41 in 10.0 mi South 9.2 mph - N/A   Overcast
12:55 PM 41.0 °F 38.0 °F 23.0 °F 49% 30.40 in 10.0 mi West 4.6 mph - N/A   Overcast
1:15 PM 37.4 °F - 23.0 °F 56% 30.40 in 10.0 mi North - - N/A   Overcast
1:35 PM 37.4 °F - 23.0 °F 56% 30.40 in 10.0 mi North - - N/A   Overcast
1:55 PM 42.8 °F - 23.0 °F 46% 30.39 in 10.0 mi North - - N/A   Scattered Clouds
2:15 PM 41.0 °F 32.8 °F 23.0 °F 49% 30.38 in 10.0 mi SW 16.1 mph 20.7 mph N/A   Scattered Clouds
2:35 PM 41.0 °F 36.4 °F 21.2 °F 45% 30.39 in 10.0 mi SSW 6.9 mph - N/A   Mostly Cloudy
2:55 PM 41.0 °F - 21.2 °F 45% 30.38 in 10.0 mi North - - N/A   Overcast
3:15 PM 41.0 °F - 21.2 °F 45% 30.37 in 10.0 mi North - - N/A   Scattered Clouds
3:35 PM 41.0 °F - 23.0 °F 49% 30.37 in 10.0 mi Calm Calm - N/A   Mostly Cloudy
3:55 PM 41.0 °F 37.1 °F 23.0 °F 49% 30.36 in 10.0 mi West 5.8 mph - N/A   Overcast
4:15 PM 42.8 °F - 21.2 °F 42% 30.35 in 10.0 mi North - - N/A   Scattered Clouds
4:35 PM 44.6 °F - 23.0 °F 43% 30.35 in 10.0 mi North - - N/A   Clear
4:55 PM 44.6 °F - 21.2 °F 39% 30.34 in 10.0 mi North - - N/A Thunderstorm Thunderstorm
5:14 PM 41.0 °F - 21.2 °F 45% 30.34 in 10.0 mi North - - N/A   Overcast
5:35 PM 39.2 °F 34.2 °F 23.0 °F 52% 30.34 in 10.0 mi SSW 6.9 mph - N/A   Overcast
6:15 PM 41.0 °F 38.0 °F 23.0 °F 49% 30.33 in 10.0 mi SSW 4.6 mph - N/A   Mostly Cloudy
6:35 PM 42.8 °F - 21.2 °F 42% 30.32 in 10.0 mi North - - N/A   Scattered Clouds
6:55 PM 42.8 °F - 23.0 °F 46% 30.32 in 10.0 mi North - - N/A   Mostly Cloudy
7:15 PM 37.4 °F - 21.2 °F 52% 30.32 in 10.0 mi North - - N/A   Scattered Clouds
7:35 PM 35.6 °F - 21.2 °F 56% 30.32 in 10.0 mi North - - N/A   Clear
8:15 PM 33.8 °F - 21.2 °F 60% 30.32 in 10.0 mi North - - N/A   Clear
8:35 PM 35.6 °F - 21.2 °F 56% 30.33 in 10.0 mi North - - N/A   Clear
8:54 PM 35.6 °F 29.9 °F 21.2 °F 56% 30.32 in 10.0 mi SSW 6.9 mph - N/A   Clear
9:15 PM 35.6 °F 29.2 °F 21.2 °F 56% 30.33 in 10.0 mi SSW 8.1 mph - N/A   Clear
9:54 PM 35.6 °F 28.6 °F 21.2 °F 56% 30.33 in 10.0 mi SW 9.2 mph - N/A   Clear
10:15 PM 35.6 °F 29.2 °F 21.2 °F 56% 30.33 in 10.0 mi SW 8.1 mph - N/A   Clear
10:35 PM 35.6 °F 29.2 °F 19.4 °F 52% 30.34 in 10.0 mi SW 8.1 mph - N/A   Scattered Clouds
10:55 PM 35.6 °F 29.9 °F 19.4 °F 52% 30.34 in 10.0 mi SW 6.9 mph - N/A   Mostly Cloudy
11:15 PM 35.6 °F 29.9 °F 19.4 °F 52% 30.34 in 10.0 mi WSW 6.9 mph - N/A   Mostly Cloudy
11:35 PM 35.6 °F 28.6 °F 19.4 °F 52% 30.33 in 10.0 mi WSW 9.2 mph - N/A   Mostly Cloudy
11:55 PM 33.8 °F 27.7 °F 21.2 °F 60% 30.33 in 10.0 mi West 6.9 mph - N/A   Mostly Cloudy